Time,TemperatureF,DewpointF,PressureIn,WindDirection,WindDirectionDegrees,WindSpeedMPH,WindSpeedGustMPH,Humidity,HourlyPrecipIn,Conditions,Clouds,dailyrainin,SolarRadiationWatts/m^2,SoftwareType,DateUTC
2013-02-08 00:00:00,30.4,23.7,29.91,East,90,6.0,13.0,76,0.00,,,0.00,0000,Weather View 32 v70,2013-02-08 05:00:00,
2013-02-08 00:01:00,30.4,23.7,29.90,East,90,6.0,13.0,76,0.00,,,0.00,0000,Weather View 32 v70,2013-02-08 05:01:00,
2013-02-08 00:03:00,30.5,23.8,29.90,East,96,5.0,13.0,76,0.00,,,0.00,0000,Weather View 32 v70,2013-02-08 05:03:00,
2013-02-08 00:09:00,30.5,23.8,29.90,East,96,4.0,13.0,76,0.00,,,0.00,0000,Weather View 32 v70,2013-02-08 05:09:00,
2013-02-08 00:14:00,30.7,24.1,29.89,East,96,4.0,13.0,76,0.00,,,0.00,0000,Weather View 32 v70,2013-02-08 05:14:00,
2013-02-08 00:19:00,30.9,24.2,29.89,East,90,6.0,13.0,76,0.00,,,0.00,0000,Weather View 32 v70,2013-02-08 05:19:00,
2013-02-08 00:24:00,30.9,24.2,29.89,East,90,5.0,13.0,76,0.00,,,0.00,0000,Weather View 32 v70,2013-02-08 05:24:00,
2013-02-08 00:30:00,31.1,24.4,29.89,East,90,10.0,13.0,76,0.00,,,0.00,0000,Weather View 32 v70,2013-02-08 05:30:00,
2013-02-08 00:35:00,31.2,24.5,29.88,East,90,6.0,13.0,76,0.00,,,0.00,0000,Weather View 32 v70,2013-02-08 05:35:00,
2013-02-08 00:41:00,31.5,24.8,29.88,East,90,10.0,16.0,76,0.00,,,0.00,0000,Weather View 32 v70,2013-02-08 05:41:00,
2013-02-08 00:46:00,31.4,24.7,29.88,East,90,7.0,16.0,76,0.00,,,0.00,0000,Weather View 32 v70,2013-02-08 05:46:00,
2013-02-08 00:52:00,31.4,25.0,29.88,East,90,6.0,16.0,77,0.00,,,0.00,0000,Weather View 32 v70,2013-02-08 05:52:00,
2013-02-08 00:57:00,31.5,25.1,29.88,East,90,8.0,16.0,77,0.00,,,0.00,0000,Weather View 32 v70,2013-02-08 05:57:00,
2013-02-08 01:02:00,31.6,24.9,29.87,East,90,8.0,16.0,76,0.00,,,0.00,0000,Weather View 32 v70,2013-02-08 06:02:00,
2013-02-08 01:07:00,31.8,25.4,29.87,East,84,9.0,16.0,77,0.00,,,0.00,0000,Weather View 32 v70,2013-02-08 06:07:00,
2013-02-08 01:12:00,31.8,25.0,29.87,East,90,7.0,16.0,76,0.00,,,0.00,0000,Weather View 32 v70,2013-02-08 06:12:00,
2013-02-08 01:17:00,31.6,25.2,29.86,East,96,8.0,16.0,77,0.00,,,0.00,0000,Weather View 32 v70,2013-02-08 06:17:00,
2013-02-08 01:22:00,31.6,25.2,29.86,East,90,7.0,16.0,77,0.00,,,0.00,0000,Weather View 32 v70,2013-02-08 06:22:00,
2013-02-08 01:27:00,31.8,25.0,29.87,East,90,5.0,17.0,76,0.00,,,0.00,0000,Weather View 32 v70,2013-02-08 06:27:00,
2013-02-08 01:32:00,31.6,25.2,29.87,East,84,11.0,17.0,77,0.00,,,0.00,0000,Weather View 32 v70,2013-02-08 06:32:00,
2013-02-08 01:37:00,31.5,24.8,29.85,East,96,7.0,17.0,76,0.00,,,0.00,0000,Weather View 32 v70,2013-02-08 06:37:00,
2013-02-08 01:42:00,31.5,25.1,29.85,East,90,11.0,18.0,77,0.00,,,0.00,0000,Weather View 32 v70,2013-02-08 06:42:00,
2013-02-08 01:47:00,31.3,24.6,29.85,East,96,11.0,22.0,76,0.00,,,0.00,0000,Weather View 32 v70,2013-02-08 06:47:00,
2013-02-08 01:52:00,31.2,24.8,29.85,East,90,9.0,22.0,77,0.00,,,0.00,0000,Weather View 32 v70,2013-02-08 06:52:00,
2013-02-08 01:57:00,31.2,24.8,29.85,East,90,11.0,22.0,77,0.00,,,0.00,0000,Weather View 32 v70,2013-02-08 06:57:00,
2013-02-08 02:02:00,31.1,24.4,29.85,East,96,10.0,22.0,76,0.00,,,0.00,0000,Weather View 32 v70,2013-02-08 07:02:00,
2013-02-08 02:07:00,31.2,24.5,29.84,East,96,12.0,22.0,76,0.00,,,0.00,0000,Weather View 32 v70,2013-02-08 07:07:00,
2013-02-08 02:12:00,31.0,24.3,29.84,East,90,11.0,22.0,76,0.00,,,0.00,0000,Weather View 32 v70,2013-02-08 07:12:00,
2013-02-08 02:17:00,30.9,24.2,29.83,East,79,10.0,23.0,76,0.00,,,0.00,0000,Weather View 32 v70,2013-02-08 07:17:00,
2013-02-08 02:22:00,31.2,24.5,29.83,East,90,8.0,23.0,76,0.00,,,0.00,0000,Weather View 32 v70,2013-02-08 07:22:00,
2013-02-08 02:27:00,31.0,24.3,29.83,East,84,13.0,23.0,76,0.00,,,0.00,0000,Weather View 32 v70,2013-02-08 07:27:00,
2013-02-08 02:32:00,30.9,24.2,29.83,ENE,73,14.0,23.0,76,0.00,,,0.00,0000,Weather View 32 v70,2013-02-08 07:32:00,
2013-02-08 02:37:00,31.0,24.0,29.82,East,96,8.0,23.0,75,0.00,,,0.00,0000,Weather View 32 v70,2013-02-08 07:37:00,
2013-02-08 02:42:00,30.7,24.1,29.82,West,276,15.0,23.0,76,0.00,,,0.00,0000,Weather View 32 v70,2013-02-08 07:42:00,
2013-02-08 02:48:00,30.9,24.2,29.82,East,90,6.0,28.0,76,0.00,,,0.00,0000,Weather View 32 v70,2013-02-08 07:48:00,
2013-02-08 02:53:00,30.7,24.1,29.82,NE,45,14.0,28.0,76,0.00,,,0.00,0000,Weather View 32 v70,2013-02-08 07:53:00,
2013-02-08 02:58:00,30.7,24.1,29.82,East,84,7.0,28.0,76,0.00,,,0.00,0000,Weather View 32 v70,2013-02-08 07:58:00,
2013-02-08 03:03:00,31.0,24.6,29.82,East,96,4.0,28.0,77,0.00,,,0.00,0000,Weather View 32 v70,2013-02-08 08:03:00,
2013-02-08 03:08:00,30.6,24.3,29.82,NE,39,15.0,28.0,77,0.00,,,0.00,0000,Weather View 32 v70,2013-02-08 08:08:00,
2013-02-08 03:13:00,30.7,24.4,29.81,East,101,14.0,28.0,77,0.00,,,0.00,0000,Weather View 32 v70,2013-02-08 08:13:00,
2013-02-08 03:18:00,30.6,24.3,29.81,East,101,9.0,28.0,77,0.00,,,0.00,0000,Weather View 32 v70,2013-02-08 08:18:00,
2013-02-08 03:23:00,30.7,24.1,29.81,East,79,10.0,28.0,76,0.00,,,0.00,0000,Weather View 32 v70,2013-02-08 08:23:00,
2013-02-08 03:28:00,30.7,23.7,29.81,NE,45,16.0,28.0,75,0.00,,,0.00,0000,Weather View 32 v70,2013-02-08 08:28:00,
2013-02-08 03:33:00,31.0,24.3,29.80,East,84,9.0,28.0,76,0.00,,,0.00,0000,Weather View 32 v70,2013-02-08 08:33:00,
2013-02-08 03:38:00,31.0,24.3,29.80,East,96,4.0,28.0,76,0.00,,,0.00,0000,Weather View 32 v70,2013-02-08 08:38:00,
2013-02-08 03:43:00,30.9,24.2,29.80,East,90,7.0,28.0,76,0.00,,,0.00,0000,Weather View 32 v70,2013-02-08 08:43:00,
2013-02-08 03:48:00,31.0,24.6,29.80,East,84,10.0,22.0,77,0.00,,,0.00,0000,Weather View 32 v70,2013-02-08 08:48:00,
2013-02-08 03:53:00,31.0,24.6,29.80,East,101,10.0,22.0,77,0.00,,,0.00,0000,Weather View 32 v70,2013-02-08 08:53:00,
2013-02-08 03:59:00,31.0,24.9,29.79,East,90,6.0,22.0,78,0.00,,,0.00,0000,Weather View 32 v70,2013-02-08 08:59:00,
2013-02-08 04:04:00,31.3,25.5,29.79,East,96,6.0,22.0,79,0.00,,,0.00,0000,Weather View 32 v70,2013-02-08 09:04:00,
2013-02-08 04:09:00,31.1,25.6,29.78,ENE,73,9.0,22.0,80,0.00,,,0.00,0000,Weather View 32 v70,2013-02-08 09:09:00,
2013-02-08 04:14:00,31.4,26.2,29.78,East,90,6.0,22.0,81,0.00,,,0.00,0000,Weather View 32 v70,2013-02-08 09:14:00,
2013-02-08 04:19:00,31.4,26.2,29.78,East,90,5.0,22.0,81,0.00,,,0.00,0000,Weather View 32 v70,2013-02-08 09:19:00,
2013-02-08 04:24:00,31.5,26.7,29.78,East,101,9.0,22.0,82,0.00,,,0.00,0000,Weather View 32 v70,2013-02-08 09:24:00,
2013-02-08 04:29:00,31.4,26.2,29.77,East,101,6.0,20.0,81,0.00,,,0.00,0000,Weather View 32 v70,2013-02-08 09:29:00,
2013-02-08 04:34:00,31.3,26.1,29.78,East,90,8.0,20.0,81,0.00,,,0.00,0000,Weather View 32 v70,2013-02-08 09:34:00,
2013-02-08 04:39:00,31.3,26.7,29.78,East,79,10.0,18.0,83,0.00,,,0.00,0000,Weather View 32 v70,2013-02-08 09:39:00,
2013-02-08 04:44:00,31.2,26.0,29.78,East,84,12.0,18.0,81,0.00,,,0.00,0000,Weather View 32 v70,2013-02-08 09:44:00,
2013-02-08 04:49:00,31.0,25.8,29.78,East,96,4.0,18.0,81,0.00,,,0.00,0000,Weather View 32 v70,2013-02-08 09:49:00,
2013-02-08 04:54:00,30.9,25.7,29.78,East,84,10.0,18.0,81,0.00,,,0.00,0000,Weather View 32 v70,2013-02-08 09:54:00,
2013-02-08 04:59:00,30.7,25.3,29.78,East,90,11.0,18.0,80,0.00,,,0.00,0000,Weather View 32 v70,2013-02-08 09:59:00,
2013-02-08 05:04:00,30.6,25.5,29.77,East,90,4.0,18.0,81,0.00,,,0.00,0000,Weather View 32 v70,2013-02-08 10:04:00,
2013-02-08 05:09:00,30.5,25.1,29.76,ENE,68,15.0,18.0,80,0.00,,,0.00,0000,Weather View 32 v70,2013-02-08 10:09:00,
2013-02-08 05:14:00,30.5,25.4,29.77,East,90,5.0,18.0,81,0.00,,,0.00,0000,Weather View 32 v70,2013-02-08 10:14:00,
2013-02-08 05:19:00,30.6,25.5,29.77,East,96,6.0,18.0,81,0.00,,,0.00,0000,Weather View 32 v70,2013-02-08 10:19:00,
2013-02-08 05:24:00,30.5,25.4,29.76,East,96,9.0,18.0,81,0.00,,,0.00,0000,Weather View 32 v70,2013-02-08 10:24:00,
2013-02-08 05:29:00,30.6,25.8,29.76,East,96,4.0,18.0,82,0.00,,,0.00,0000,Weather View 32 v70,2013-02-08 10:29:00,
2013-02-08 05:34:00,30.5,25.4,29.76,East,90,8.0,18.0,81,0.00,,,0.00,0000,Weather View 32 v70,2013-02-08 10:34:00,
2013-02-08 05:39:00,30.3,25.1,29.76,East,90,6.0,18.0,81,0.00,,,0.00,0000,Weather View 32 v70,2013-02-08 10:39:00,
2013-02-08 05:44:00,30.5,25.7,29.75,East,96,5.0,18.0,82,0.00,,,0.00,0000,Weather View 32 v70,2013-02-08 10:44:00,
2013-02-08 05:49:00,30.4,25.9,29.76,East,96,5.0,18.0,83,0.00,,,0.00,0000,Weather View 32 v70,2013-02-08 10:49:00,
2013-02-08 05:54:00,30.4,25.9,29.74,East,96,6.0,18.0,83,0.00,,,0.00,0000,Weather View 32 v70,2013-02-08 10:54:00,
2013-02-08 05:59:00,30.3,25.7,29.74,East,96,11.0,18.0,83,0.00,,,0.00,0000,Weather View 32 v70,2013-02-08 10:59:00,
2013-02-08 06:04:00,30.4,25.9,29.74,East,90,6.0,18.0,83,0.00,,,0.00,0000,Weather View 32 v70,2013-02-08 11:04:00,
2013-02-08 06:09:00,30.4,25.9,29.74,East,90,5.0,18.0,83,0.00,,,0.00,0000,Weather View 32 v70,2013-02-08 11:09:00,
2013-02-08 06:14:00,30.4,25.9,29.73,East,90,5.0,17.0,83,0.00,,,0.00,0000,Weather View 32 v70,2013-02-08 11:14:00,
2013-02-08 06:19:00,30.6,26.4,29.73,NNE,17,15.0,17.0,84,0.00,,,0.00,0000,Weather View 32 v70,2013-02-08 11:19:00,
2013-02-08 06:24:00,30.6,26.4,29.72,East,96,8.0,17.0,84,0.00,,,0.00,0000,Weather View 32 v70,2013-02-08 11:24:00,
2013-02-08 06:29:00,30.5,26.2,29.72,East,90,9.0,17.0,84,0.00,,,0.00,0000,Weather View 32 v70,2013-02-08 11:29:00,
2013-02-08 06:34:00,30.6,26.6,29.72,East,96,8.0,17.0,85,0.00,,,0.00,0000,Weather View 32 v70,2013-02-08 11:34:00,
2013-02-08 06:39:00,30.6,26.4,29.72,East,90,6.0,17.0,84,0.00,,,0.00,0000,Weather View 32 v70,2013-02-08 11:39:00,
2013-02-08 06:44:00,30.6,26.6,29.72,East,90,5.0,17.0,85,0.00,,,0.00,0000,Weather View 32 v70,2013-02-08 11:44:00,
2013-02-08 06:49:00,30.7,27.0,29.71,East,90,8.0,17.0,86,0.00,,,0.00,0000,Weather View 32 v70,2013-02-08 11:49:00,
2013-02-08 06:54:00,30.7,27.3,29.71,East,90,8.0,17.0,87,0.00,,,0.00,0000,Weather View 32 v70,2013-02-08 11:54:00,
2013-02-08 06:59:00,30.7,27.6,29.71,East,90,6.0,17.0,88,0.00,,,0.00,0000,Weather View 32 v70,2013-02-08 11:59:00,
2013-02-08 07:04:00,30.6,28.3,29.71,East,90,7.0,15.0,91,0.00,,,0.00,0000,Weather View 32 v70,2013-02-08 12:04:00,
2013-02-08 07:09:00,30.7,28.7,29.70,East,96,6.0,15.0,92,0.00,,,0.00,0000,Weather View 32 v70,2013-02-08 12:09:00,
2013-02-08 07:14:00,31.0,28.9,29.71,East,90,5.0,15.0,92,0.00,,,0.00,0000,Weather View 32 v70,2013-02-08 12:14:00,
2013-02-08 07:19:00,31.1,29.3,29.70,East,90,9.0,15.0,93,0.00,,,0.00,0000,Weather View 32 v70,2013-02-08 12:19:00,
2013-02-08 07:24:00,31.1,29.0,29.70,East,90,7.0,16.0,92,0.00,,,0.00,0000,Weather View 32 v70,2013-02-08 12:24:00,
2013-02-08 07:29:00,30.9,29.3,29.70,East,90,6.0,20.0,94,0.00,,,0.00,0000,Weather View 32 v70,2013-02-08 12:29:00,
2013-02-08 07:34:00,30.9,30.4,29.70,East,90,8.0,20.0,98,0.00,,,0.00,0000,Weather View 32 v70,2013-02-08 12:34:00,
2013-02-08 07:39:00,30.6,30.6,29.70,East,90,8.0,20.0,100,0.00,,,0.00,0008,Weather View 32 v70,2013-02-08 12:39:00,
2013-02-08 07:44:00,30.5,30.5,29.70,East,101,14.0,20.0,100,0.00,,,0.00,0008,Weather View 32 v70,2013-02-08 12:44:00,
2013-02-08 07:49:00,30.5,30.5,29.69,ENE,62,13.0,20.0,100,0.00,,,0.00,0008,Weather View 32 v70,2013-02-08 12:49:00,
2013-02-08 07:55:00,30.6,30.6,29.69,East,101,5.0,20.0,100,0.00,,,0.00,0008,Weather View 32 v70,2013-02-08 12:55:00,
2013-02-08 08:00:00,30.7,30.7,29.69,East,96,6.0,20.0,100,0.00,,,0.00,0016,Weather View 32 v70,2013-02-08 13:00:00,
2013-02-08 08:05:00,30.9,30.9,29.69,East,90,9.0,20.0,100,0.00,,,0.00,0024,Weather View 32 v70,2013-02-08 13:05:00,
2013-02-08 08:10:00,31.0,31.0,29.69,East,90,5.0,20.0,100,0.00,,,0.00,0024,Weather View 32 v70,2013-02-08 13:10:00,
2013-02-08 08:15:00,31.2,31.2,29.68,East,90,5.0,20.0,100,0.00,,,0.00,0024,Weather View 32 v70,2013-02-08 13:15:00,
2013-02-08 08:20:00,31.3,31.3,29.68,East,96,7.0,20.0,100,0.00,,,0.00,0024,Weather View 32 v70,2013-02-08 13:20:00,
2013-02-08 08:25:00,31.3,31.3,29.68,East,79,12.0,20.0,100,0.00,,,0.00,0024,Weather View 32 v70,2013-02-08 13:25:00,
2013-02-08 08:30:00,31.6,31.6,29.68,East,96,5.0,21.0,100,0.00,,,0.00,0032,Weather View 32 v70,2013-02-08 13:30:00,
2013-02-08 08:35:00,31.5,31.5,29.67,East,96,6.0,21.0,100,0.00,,,0.00,0024,Weather View 32 v70,2013-02-08 13:35:00,
2013-02-08 08:40:00,31.8,31.8,29.67,East,96,8.0,24.0,100,0.00,,,0.00,0032,Weather View 32 v70,2013-02-08 13:40:00,
2013-02-08 08:45:00,31.8,31.8,29.66,East,84,11.0,24.0,100,0.00,,,0.00,0032,Weather View 32 v70,2013-02-08 13:45:00,
2013-02-08 08:50:00,31.8,31.8,29.65,East,90,7.0,24.0,100,0.00,,,0.00,0032,Weather View 32 v70,2013-02-08 13:50:00,
2013-02-08 08:55:00,31.9,31.9,29.65,ENE,73,13.0,24.0,100,0.00,,,0.00,0048,Weather View 32 v70,2013-02-08 13:55:00,
2013-02-08 09:00:00,32.0,32.0,29.65,East,84,9.0,24.0,100,0.00,,,0.00,0040,Weather View 32 v70,2013-02-08 14:00:00,
2013-02-08 09:05:00,32.1,32.1,29.65,East,96,4.0,24.0,100,0.00,,,0.00,0040,Weather View 32 v70,2013-02-08 14:05:00,
2013-02-08 09:10:00,32.2,32.2,29.65,East,96,8.0,24.0,100,0.00,,,0.00,0040,Weather View 32 v70,2013-02-08 14:10:00,
2013-02-08 09:15:00,32.2,32.2,29.65,East,101,13.0,24.0,100,0.00,,,0.00,0032,Weather View 32 v70,2013-02-08 14:15:00,
2013-02-08 09:20:00,32.2,32.2,29.65,East,90,6.0,24.0,100,0.00,,,0.00,0040,Weather View 32 v70,2013-02-08 14:20:00,
2013-02-08 09:25:00,32.2,32.2,29.64,East,96,9.0,24.0,100,0.00,,,0.00,0040,Weather View 32 v70,2013-02-08 14:25:00,
2013-02-08 09:30:00,32.3,32.3,29.63,ENE,73,16.0,24.0,100,0.00,,,0.00,0048,Weather View 32 v70,2013-02-08 14:30:00,
2013-02-08 09:35:00,32.2,32.2,29.63,East,90,8.0,24.0,100,0.00,,,0.00,0064,Weather View 32 v70,2013-02-08 14:35:00,
2013-02-08 09:40:00,32.2,32.2,29.62,NNE,17,18.0,24.0,100,0.00,,,0.00,0056,Weather View 32 v70,2013-02-08 14:40:00,
2013-02-08 09:45:00,32.2,32.2,29.62,ENE,68,11.0,24.0,100,0.00,,,0.00,0056,Weather View 32 v70,2013-02-08 14:45:00,
2013-02-08 09:50:00,32.2,32.2,29.61,East,96,9.0,25.0,100,0.00,,,0.00,0056,Weather View 32 v70,2013-02-08 14:50:00,
2013-02-08 09:55:00,32.2,32.2,29.61,ENE,68,12.0,25.0,100,0.00,,,0.00,0048,Weather View 32 v70,2013-02-08 14:55:00,
2013-02-08 10:00:00,32.2,32.2,29.61,East,79,11.0,25.0,100,0.00,,,0.00,0064,Weather View 32 v70,2013-02-08 15:00:00,
2013-02-08 10:05:00,32.2,32.2,29.60,East,96,5.0,25.0,100,0.00,,,0.00,0064,Weather View 32 v70,2013-02-08 15:05:00,
2013-02-08 10:10:00,32.0,32.0,29.60,ENE,73,14.0,25.0,100,0.00,,,0.00,0056,Weather View 32 v70,2013-02-08 15:10:00,
2013-02-08 10:15:00,32.1,32.1,29.59,East,90,7.0,27.0,100,0.00,,,0.00,0064,Weather View 32 v70,2013-02-08 15:15:00,
2013-02-08 10:20:00,32.1,32.1,29.59,East,90,7.0,27.0,100,0.00,,,0.00,0072,Weather View 32 v70,2013-02-08 15:20:00,
2013-02-08 10:25:00,32.0,32.0,29.59,East,90,8.0,27.0,100,0.00,,,0.00,0064,Weather View 32 v70,2013-02-08 15:25:00,
2013-02-08 10:30:00,31.9,31.9,29.59,East,90,16.0,27.0,100,0.00,,,0.00,0064,Weather View 32 v70,2013-02-08 15:30:00,
2013-02-08 10:35:00,31.9,31.9,29.59,East,84,12.0,27.0,100,0.00,,,0.00,0056,Weather View 32 v70,2013-02-08 15:35:00,
2013-02-08 10:40:00,31.8,31.8,29.58,East,96,6.0,27.0,100,0.00,,,0.00,0056,Weather View 32 v70,2013-02-08 15:40:00,
2013-02-08 10:45:00,31.9,31.9,29.58,East,84,9.0,27.0,100,0.00,,,0.00,0056,Weather View 32 v70,2013-02-08 15:45:00,
2013-02-08 10:50:00,31.8,31.8,29.58,East,90,7.0,27.0,100,0.00,,,0.00,0064,Weather View 32 v70,2013-02-08 15:50:00,
2013-02-08 10:55:00,31.8,31.8,29.57,East,96,9.0,27.0,100,0.00,,,0.00,0064,Weather View 32 v70,2013-02-08 15:55:00,
2013-02-08 11:00:00,31.8,31.8,29.57,East,96,9.0,27.0,100,0.00,,,0.00,0064,Weather View 32 v70,2013-02-08 16:00:00,
2013-02-08 11:05:00,31.8,31.8,29.56,East,96,9.0,27.0,100,0.00,,,0.00,0064,Weather View 32 v70,2013-02-08 16:05:00,
2013-02-08 11:10:00,31.6,31.6,29.56,East,101,9.0,27.0,100,0.00,,,0.00,0056,Weather View 32 v70,2013-02-08 16:10:00,
2013-02-08 11:15:00,31.6,31.6,29.55,East,90,6.0,25.0,100,0.00,,,0.00,0064,Weather View 32 v70,2013-02-08 16:15:00,
2013-02-08 11:20:00,31.5,31.5,29.54,East,101,18.0,23.0,100,0.00,,,0.00,0064,Weather View 32 v70,2013-02-08 16:20:00,
2013-02-08 11:25:00,31.6,31.6,29.54,East,101,5.0,23.0,100,0.00,,,0.00,0056,Weather View 32 v70,2013-02-08 16:25:00,
2013-02-08 11:30:00,31.6,31.6,29.54,East,101,8.0,23.0,100,0.00,,,0.00,0056,Weather View 32 v70,2013-02-08 16:30:00,
2013-02-08 11:35:00,31.5,31.5,29.53,East,101,11.0,19.0,100,0.00,,,0.00,0048,Weather View 32 v70,2013-02-08 16:35:00,
2013-02-08 11:40:00,31.5,31.5,29.53,East,90,5.0,19.0,100,0.00,,,0.00,0048,Weather View 32 v70,2013-02-08 16:40:00,
2013-02-08 11:45:00,31.5,31.5,29.53,East,90,11.0,19.0,100,0.00,,,0.00,0048,Weather View 32 v70,2013-02-08 16:45:00,
2013-02-08 11:50:00,31.5,31.5,29.53,East,96,10.0,19.0,100,0.00,,,0.00,0048,Weather View 32 v70,2013-02-08 16:50:00,
2013-02-08 11:55:00,31.5,31.5,29.53,East,96,8.0,19.0,100,0.00,,,0.00,0048,Weather View 32 v70,2013-02-08 16:55:00,
2013-02-08 12:00:00,31.5,31.5,29.53,East,90,9.0,19.0,100,0.00,,,0.00,0048,Weather View 32 v70,2013-02-08 17:00:00,
2013-02-08 12:05:00,31.5,31.5,29.53,East,96,4.0,19.0,100,0.00,,,0.00,0048,Weather View 32 v70,2013-02-08 17:05:00,
2013-02-08 12:10:00,31.5,31.5,29.53,East,96,8.0,19.0,100,0.00,,,0.00,0048,Weather View 32 v70,2013-02-08 17:10:00,
2013-02-08 12:15:00,31.5,31.5,29.53,East,96,4.0,19.0,100,0.00,,,0.00,0048,Weather View 32 v70,2013-02-08 17:15:00,
2013-02-08 12:20:00,31.5,31.5,29.53,East,101,9.0,18.0,100,0.00,,,0.00,0048,Weather View 32 v70,2013-02-08 17:20:00,
2013-02-08 12:25:00,31.5,31.5,29.53,East,96,6.0,17.0,100,0.00,,,0.00,0048,Weather View 32 v70,2013-02-08 17:25:00,
2013-02-08 12:30:00,31.5,31.5,29.53,East,96,4.0,17.0,100,0.00,,,0.00,0048,Weather View 32 v70,2013-02-08 17:30:00,
2013-02-08 12:35:00,31.5,31.5,29.53,East,96,8.0,17.0,100,0.00,,,0.00,0048,Weather View 32 v70,2013-02-08 17:35:00,
2013-02-08 12:40:00,31.5,31.5,29.53,East,96,3.0,17.0,100,0.00,,,0.00,0048,Weather View 32 v70,2013-02-08 17:40:00,
2013-02-08 12:45:00,31.5,31.5,29.53,East,101,7.0,17.0,100,0.00,,,0.00,0048,Weather View 32 v70,2013-02-08 17:45:00,
2013-02-08 12:50:00,31.5,31.5,29.53,East,101,9.0,17.0,100,0.00,,,0.00,0048,Weather View 32 v70,2013-02-08 17:50:00,
2013-02-08 12:55:00,31.5,31.5,29.53,East,101,6.0,17.0,100,0.00,,,0.00,0048,Weather View 32 v70,2013-02-08 17:55:00,
2013-02-08 13:00:00,31.5,31.5,29.53,East,96,5.0,17.0,100,0.00,,,0.00,0048,Weather View 32 v70,2013-02-08 18:00:00,
2013-02-08 13:05:00,31.5,31.5,29.53,East,96,5.0,17.0,100,0.00,,,0.00,0048,Weather View 32 v70,2013-02-08 18:05:00,
2013-02-08 13:10:00,31.5,31.5,29.53,East,96,5.0,17.0,100,0.00,,,0.00,0048,Weather View 32 v70,2013-02-08 18:10:00,
2013-02-08 13:15:00,31.5,31.5,29.53,East,96,4.0,17.0,100,0.00,,,0.00,0048,Weather View 32 v70,2013-02-08 18:15:00,
2013-02-08 13:20:00,31.5,31.5,29.53,East,96,8.0,17.0,100,0.00,,,0.00,0048,Weather View 32 v70,2013-02-08 18:20:00,
2013-02-08 13:25:00,31.5,31.5,29.53,East,96,6.0,17.0,100,0.00,,,0.00,0048,Weather View 32 v70,2013-02-08 18:25:00,
2013-02-08 13:31:00,31.5,31.5,29.53,East,96,7.0,17.0,100,0.00,,,0.00,0048,Weather View 32 v70,2013-02-08 18:31:00,
2013-02-08 13:36:00,31.5,31.5,29.53,East,96,7.0,17.0,100,0.00,,,0.00,0048,Weather View 32 v70,2013-02-08 18:36:00,
2013-02-08 13:41:00,31.5,31.5,29.53,ESE,107,8.0,17.0,100,0.00,,,0.00,0048,Weather View 32 v70,2013-02-08 18:41:00,
2013-02-08 13:46:00,31.5,31.5,29.53,East,96,6.0,17.0,100,0.00,,,0.00,0048,Weather View 32 v70,2013-02-08 18:46:00,
2013-02-08 13:51:00,31.5,31.5,29.53,East,96,8.0,17.0,100,0.00,,,0.00,0048,Weather View 32 v70,2013-02-08 18:51:00,
2013-02-08 13:57:00,31.5,31.5,29.53,East,96,6.0,17.0,100,0.00,,,0.00,0048,Weather View 32 v70,2013-02-08 18:57:00,
2013-02-08 14:02:00,31.5,31.5,29.53,East,96,7.0,17.0,100,0.00,,,0.00,0048,Weather View 32 v70,2013-02-08 19:02:00,
2013-02-08 14:07:00,31.5,31.5,29.53,East,96,8.0,17.0,100,0.00,,,0.00,0048,Weather View 32 v70,2013-02-08 19:07:00,
2013-02-08 14:12:00,31.5,31.5,29.53,East,96,7.0,17.0,100,0.00,,,0.00,0048,Weather View 32 v70,2013-02-08 19:12:00,
2013-02-08 14:17:00,31.5,31.5,29.53,East,96,6.0,17.0,100,0.00,,,0.00,0048,Weather View 32 v70,2013-02-08 19:17:00,
2013-02-08 14:22:00,31.5,31.5,29.53,East,96,7.0,17.0,100,0.00,,,0.00,0048,Weather View 32 v70,2013-02-08 19:22:00,
2013-02-08 14:27:00,31.5,31.5,29.53,East,96,5.0,16.0,100,0.00,,,0.00,0048,Weather View 32 v70,2013-02-08 19:27:00,
2013-02-08 14:32:00,31.5,31.5,29.53,East,101,6.0,16.0,100,0.00,,,0.00,0048,Weather View 32 v70,2013-02-08 19:32:00,
2013-02-08 14:37:00,31.5,31.5,29.53,East,96,4.0,16.0,100,0.00,,,0.00,0048,Weather View 32 v70,2013-02-08 19:37:00,
2013-02-08 14:42:00,31.5,31.5,29.53,ESE,113,9.0,16.0,100,0.00,,,0.00,0048,Weather View 32 v70,2013-02-08 19:42:00,
2013-02-08 14:47:00,31.5,31.5,29.53,ESE,113,8.0,16.0,100,0.00,,,0.00,0048,Weather View 32 v70,2013-02-08 19:47:00,
2013-02-08 14:52:00,31.5,31.5,29.53,East,96,5.0,16.0,100,0.00,,,0.00,0048,Weather View 32 v70,2013-02-08 19:52:00,
2013-02-08 14:57:00,31.5,31.5,29.53,East,101,5.0,16.0,100,0.00,,,0.00,0048,Weather View 32 v70,2013-02-08 19:57:00,
2013-02-08 15:02:00,31.5,31.5,29.53,SE,146,13.0,19.0,100,0.00,,,0.00,0048,Weather View 32 v70,2013-02-08 20:02:00,
2013-02-08 15:07:00,31.5,31.5,29.53,NE,39,12.0,19.0,100,0.00,,,0.00,0048,Weather View 32 v70,2013-02-08 20:07:00,
2013-02-08 15:12:00,31.5,31.5,29.53,East,96,8.0,19.0,100,0.00,,,0.00,0048,Weather View 32 v70,2013-02-08 20:12:00,
2013-02-08 15:17:00,31.5,31.5,29.53,East,101,8.0,20.0,100,0.00,,,0.00,0048,Weather View 32 v70,2013-02-08 20:17:00,
2013-02-08 15:22:00,31.5,31.5,29.53,East,96,5.0,22.0,100,0.00,,,0.00,0048,Weather View 32 v70,2013-02-08 20:22:00,
2013-02-08 15:27:00,31.5,31.5,29.53,ESE,118,10.0,22.0,100,0.00,,,0.00,0048,Weather View 32 v70,2013-02-08 20:27:00,
2013-02-08 15:32:00,31.5,31.5,29.53,East,101,10.0,22.0,100,0.00,,,0.00,0048,Weather View 32 v70,2013-02-08 20:32:00,
2013-02-08 15:37:00,31.5,31.5,29.53,SE,141,9.0,22.0,100,0.00,,,0.00,0048,Weather View 32 v70,2013-02-08 20:37:00,
2013-02-08 15:42:00,31.5,31.5,29.53,SE,129,12.0,22.0,100,0.00,,,0.00,0048,Weather View 32 v70,2013-02-08 20:42:00,
2013-02-08 15:47:00,31.5,31.5,29.53,ESE,118,9.0,22.0,100,0.00,,,0.00,0048,Weather View 32 v70,2013-02-08 20:47:00,
2013-02-08 15:52:00,31.5,31.5,29.53,ESE,113,9.0,22.0,100,0.00,,,0.00,0048,Weather View 32 v70,2013-02-08 20:52:00,
2013-02-08 15:57:00,31.5,31.5,29.53,ESE,107,11.0,22.0,100,0.00,,,0.00,0048,Weather View 32 v70,2013-02-08 20:57:00,
2013-02-08 16:02:00,31.5,31.5,29.53,East,96,7.0,22.0,100,0.00,,,0.00,0048,Weather View 32 v70,2013-02-08 21:02:00,
2013-02-08 16:07:00,31.5,31.5,29.53,East,96,5.0,22.0,100,0.00,,,0.00,0048,Weather View 32 v70,2013-02-08 21:07:00,
2013-02-08 16:12:00,31.5,31.5,29.53,SE,129,13.0,22.0,100,0.00,,,0.00,0048,Weather View 32 v70,2013-02-08 21:12:00,
2013-02-08 16:17:00,31.5,31.5,29.53,East,90,7.0,22.0,100,0.00,,,0.00,0048,Weather View 32 v70,2013-02-08 21:17:00,
2013-02-08 16:22:00,31.5,31.5,29.53,ESE,107,7.0,22.0,100,0.00,,,0.00,0048,Weather View 32 v70,2013-02-08 21:22:00,
2013-02-08 16:27:00,31.5,31.5,29.53,SE,141,15.0,24.0,100,0.00,,,0.00,0048,Weather View 32 v70,2013-02-08 21:27:00,
2013-02-08 16:32:00,31.5,31.5,29.53,SE,124,7.0,24.0,100,0.00,,,0.00,0048,Weather View 32 v70,2013-02-08 21:32:00,
2013-02-08 16:37:00,31.5,31.5,29.53,SE,124,15.0,24.0,100,0.00,,,0.00,0048,Weather View 32 v70,2013-02-08 21:37:00,
2013-02-08 16:42:00,31.5,31.5,29.53,SE,141,15.0,24.0,100,0.00,,,0.00,0048,Weather View 32 v70,2013-02-08 21:42:00,
2013-02-08 16:47:00,31.5,31.5,29.53,East,79,17.0,24.0,100,0.00,,,0.00,0048,Weather View 32 v70,2013-02-08 21:47:00,
2013-02-08 16:52:00,31.5,31.5,29.53,East,84,9.0,24.0,100,0.00,,,0.00,0048,Weather View 32 v70,2013-02-08 21:52:00,
2013-02-08 16:57:00,31.5,31.5,29.53,SE,124,9.0,24.0,100,0.00,,,0.00,0048,Weather View 32 v70,2013-02-08 21:57:00,
2013-02-08 17:02:00,31.5,31.5,29.53,SE,135,17.0,24.0,100,0.00,,,0.00,0048,Weather View 32 v70,2013-02-08 22:02:00,
2013-02-08 17:07:00,31.5,31.5,29.53,ESE,118,11.0,24.0,100,0.00,,,0.00,0048,Weather View 32 v70,2013-02-08 22:07:00,
2013-02-08 17:12:00,31.5,31.5,29.53,South,169,10.0,24.0,100,0.00,,,0.00,0048,Weather View 32 v70,2013-02-08 22:12:00,
2013-02-08 17:17:00,31.5,31.5,29.53,East,84,9.0,24.0,100,0.00,,,0.00,0048,Weather View 32 v70,2013-02-08 22:17:00,
2013-02-08 17:22:00,31.5,31.5,29.53,ESE,118,12.0,24.0,100,0.00,,,0.00,0048,Weather View 32 v70,2013-02-08 22:22:00,
2013-02-08 17:27:00,31.5,31.5,29.53,East,101,9.0,23.0,100,0.00,,,0.00,0048,Weather View 32 v70,2013-02-08 22:27:00,
2013-02-08 17:32:00,31.5,31.5,29.53,East,101,7.0,23.0,100,0.00,,,0.00,0048,Weather View 32 v70,2013-02-08 22:32:00,
2013-02-08 17:37:00,31.5,31.5,29.53,SE,129,13.0,24.0,100,0.00,,,0.00,0048,Weather View 32 v70,2013-02-08 22:37:00,
2013-02-08 17:42:00,31.5,31.5,29.53,East,96,7.0,24.0,100,0.00,,,0.00,0048,Weather View 32 v70,2013-02-08 22:42:00,
2013-02-08 17:47:00,31.5,31.5,29.53,ESE,113,7.0,24.0,100,0.00,,,0.00,0048,Weather View 32 v70,2013-02-08 22:47:00,
2013-02-08 17:52:00,31.5,31.5,29.53,ESE,118,10.0,24.0,100,0.00,,,0.00,0048,Weather View 32 v70,2013-02-08 22:52:00,
2013-02-08 17:57:00,31.5,31.5,29.53,ESE,118,11.0,24.0,100,0.00,,,0.00,0048,Weather View 32 v70,2013-02-08 22:57:00,
2013-02-08 18:02:00,31.5,31.5,29.53,ESE,118,11.0,24.0,100,0.00,,,0.00,0048,Weather View 32 v70,2013-02-08 23:02:00,
2013-02-08 18:07:00,31.5,31.5,29.53,East,96,5.0,24.0,100,0.00,,,0.00,0048,Weather View 32 v70,2013-02-08 23:07:00,
2013-02-08 18:12:00,31.5,31.5,29.53,ESE,107,7.0,24.0,100,0.00,,,0.00,0048,Weather View 32 v70,2013-02-08 23:12:00,
2013-02-08 18:17:00,31.5,31.5,29.53,SSE,163,11.0,24.0,100,0.00,,,0.00,0048,Weather View 32 v70,2013-02-08 23:17:00,
2013-02-08 18:22:00,31.5,31.5,29.53,East,96,7.0,24.0,100,0.00,,,0.00,0048,Weather View 32 v70,2013-02-08 23:22:00,
2013-02-08 18:27:00,31.5,31.5,29.53,East,101,8.0,24.0,100,0.00,,,0.00,0048,Weather View 32 v70,2013-02-08 23:27:00,
2013-02-08 18:32:00,31.5,31.5,29.53,SE,129,12.0,24.0,100,0.00,,,0.00,0048,Weather View 32 v70,2013-02-08 23:32:00,
2013-02-08 18:37:00,31.5,31.5,29.53,South,180,19.0,24.0,100,0.00,,,0.00,0048,Weather View 32 v70,2013-02-08 23:37:00,
2013-02-08 18:42:00,31.5,31.5,29.53,ENE,68,9.0,24.0,100,0.00,,,0.00,0048,Weather View 32 v70,2013-02-08 23:42:00,
2013-02-08 18:47:00,31.5,31.5,29.53,South,169,13.0,24.0,100,0.00,,,0.00,0048,Weather View 32 v70,2013-02-08 23:47:00,
2013-02-08 18:52:00,31.5,31.5,29.53,East,101,5.0,24.0,100,0.00,,,0.00,0048,Weather View 32 v70,2013-02-08 23:52:00,
2013-02-08 18:57:00,31.5,31.5,29.53,East,79,8.0,28.0,100,0.00,,,0.00,0048,Weather View 32 v70,2013-02-08 23:57:00,
2013-02-08 19:02:00,31.5,31.5,29.53,SE,124,7.0,28.0,100,0.00,,,0.00,0048,Weather View 32 v70,2013-02-09 00:02:00,
2013-02-08 19:07:00,31.5,31.5,29.53,East,101,6.0,28.0,100,0.00,,,0.00,0048,Weather View 32 v70,2013-02-09 00:07:00,
2013-02-08 19:12:00,31.5,31.5,29.53,ESE,107,10.0,28.0,100,0.00,,,0.00,0048,Weather View 32 v70,2013-02-09 00:12:00,
2013-02-08 19:17:00,31.5,31.5,29.53,East,101,10.0,28.0,100,0.00,,,0.00,0048,Weather View 32 v70,2013-02-09 00:17:00,
2013-02-08 19:22:00,31.5,31.5,29.53,ESE,118,9.0,28.0,100,0.00,,,0.00,0048,Weather View 32 v70,2013-02-09 00:22:00,
2013-02-08 19:27:00,31.5,31.5,29.53,South,180,18.0,28.0,100,0.00,,,0.00,0048,Weather View 32 v70,2013-02-09 00:27:00,
2013-02-08 19:32:00,31.5,31.5,29.53,East,96,12.0,28.0,100,0.00,,,0.00,0048,Weather View 32 v70,2013-02-09 00:32:00,
2013-02-08 19:37:00,31.5,31.5,29.53,East,101,15.0,28.0,100,0.00,,,0.00,0048,Weather View 32 v70,2013-02-09 00:37:00,
2013-02-08 19:42:00,31.5,31.5,29.53,ESE,118,10.0,28.0,100,0.00,,,0.00,0048,Weather View 32 v70,2013-02-09 00:42:00,
2013-02-08 19:47:00,31.5,31.5,29.53,ESE,118,8.0,28.0,100,0.00,,,0.00,0048,Weather View 32 v70,2013-02-09 00:47:00,
2013-02-08 19:52:00,31.5,31.5,29.53,SE,129,8.0,28.0,100,0.00,,,0.00,0048,Weather View 32 v70,2013-02-09 00:52:00,
2013-02-08 19:57:00,31.5,31.5,29.53,SE,129,12.0,27.0,100,0.00,,,0.00,0048,Weather View 32 v70,2013-02-09 00:57:00,
2013-02-08 20:02:00,31.5,31.5,29.53,SE,129,14.0,27.0,100,0.00,,,0.00,0048,Weather View 32 v70,2013-02-09 01:02:00,
2013-02-08 20:07:00,31.5,31.5,29.53,ESE,107,15.0,27.0,100,0.00,,,0.00,0048,Weather View 32 v70,2013-02-09 01:07:00,
2013-02-08 20:12:00,31.5,31.5,29.53,East,90,5.0,27.0,100,0.00,,,0.00,0048,Weather View 32 v70,2013-02-09 01:12:00,
2013-02-08 20:17:00,31.5,31.5,29.53,South,169,12.0,27.0,100,0.00,,,0.00,0048,Weather View 32 v70,2013-02-09 01:17:00,
2013-02-08 20:22:00,31.5,31.5,29.53,ESE,113,12.0,27.0,100,0.00,,,0.00,0048,Weather View 32 v70,2013-02-09 01:22:00,
2013-02-08 20:27:00,31.5,31.5,29.53,East,101,5.0,27.0,100,0.00,,,0.00,0048,Weather View 32 v70,2013-02-09 01:27:00,
2013-02-08 20:32:00,31.5,31.5,29.53,SE,129,10.0,27.0,100,0.00,,,0.00,0048,Weather View 32 v70,2013-02-09 01:32:00,
2013-02-08 20:37:00,31.5,31.5,29.53,SE,141,16.0,27.0,100,0.00,,,0.00,0048,Weather View 32 v70,2013-02-09 01:37:00,
2013-02-08 20:42:00,31.5,31.5,29.53,East,79,11.0,26.0,100,0.00,,,0.00,0048,Weather View 32 v70,2013-02-09 01:42:00,
2013-02-08 20:47:00,31.5,31.5,29.53,ESE,107,11.0,26.0,100,0.00,,,0.00,0048,Weather View 32 v70,2013-02-09 01:47:00,
2013-02-08 20:52:00,31.5,31.5,29.53,East,90,6.0,26.0,100,0.00,,,0.00,0048,Weather View 32 v70,2013-02-09 01:52:00,
2013-02-08 20:57:00,31.5,31.5,29.53,SE,124,14.0,29.0,100,0.00,,,0.00,0048,Weather View 32 v70,2013-02-09 01:57:00,
2013-02-08 21:02:00,31.5,31.5,29.53,ESE,107,10.0,29.0,100,0.00,,,0.00,0048,Weather View 32 v70,2013-02-09 02:02:00,
2013-02-08 21:07:00,31.5,31.5,29.53,ESE,118,8.0,29.0,100,0.00,,,0.00,0048,Weather View 32 v70,2013-02-09 02:07:00,
2013-02-08 21:12:00,31.5,31.5,29.53,ESE,118,14.0,29.0,100,0.00,,,0.00,0048,Weather View 32 v70,2013-02-09 02:12:00,
2013-02-08 21:17:00,31.5,31.5,29.53,ESE,107,7.0,29.0,100,0.00,,,0.00,0048,Weather View 32 v70,2013-02-09 02:17:00,
2013-02-08 21:22:00,31.5,31.5,29.53,ESE,107,10.0,29.0,100,0.00,,,0.00,0048,Weather View 32 v70,2013-02-09 02:22:00,
2013-02-08 21:27:00,31.5,31.5,29.53,ESE,107,19.0,29.0,100,0.00,,,0.00,0048,Weather View 32 v70,2013-02-09 02:27:00,
2013-02-08 21:32:00,31.5,31.5,29.53,ESE,107,9.0,29.0,100,0.00,,,0.00,0048,Weather View 32 v70,2013-02-09 02:32:00,
2013-02-08 21:37:00,31.5,31.5,29.53,ESE,107,11.0,29.0,100,0.00,,,0.00,0048,Weather View 32 v70,2013-02-09 02:37:00,
2013-02-08 21:42:00,31.5,31.5,29.53,ESE,118,11.0,29.0,100,0.00,,,0.00,0048,Weather View 32 v70,2013-02-09 02:42:00,
2013-02-08 21:47:00,31.5,31.5,29.53,ESE,107,11.0,29.0,100,0.00,,,0.00,0048,Weather View 32 v70,2013-02-09 02:47:00,
2013-02-08 21:52:00,31.5,31.5,29.53,ESE,113,9.0,29.0,100,0.00,,,0.00,0048,Weather View 32 v70,2013-02-09 02:52:00,
2013-02-08 21:57:00,31.5,31.5,29.53,SE,135,10.0,26.0,100,0.00,,,0.00,0048,Weather View 32 v70,2013-02-09 02:57:00,
2013-02-08 22:02:00,31.5,31.5,29.53,ESE,107,8.0,27.0,100,0.00,,,0.00,0048,Weather View 32 v70,2013-02-09 03:02:00,
2013-02-08 22:07:00,31.5,31.5,29.53,ESE,107,10.0,27.0,100,0.00,,,0.00,0048,Weather View 32 v70,2013-02-09 03:07:00,
2013-02-08 22:12:00,31.5,31.5,29.53,SE,135,16.0,27.0,100,0.00,,,0.00,0048,Weather View 32 v70,2013-02-09 03:12:00,
2013-02-08 22:17:00,31.5,31.5,29.53,SE,141,16.0,27.0,100,0.00,,,0.00,0048,Weather View 32 v70,2013-02-09 03:17:00,
2013-02-08 22:22:00,31.5,31.5,29.53,ESE,107,10.0,27.0,100,0.00,,,0.00,0048,Weather View 32 v70,2013-02-09 03:22:00,
2013-02-08 22:27:00,31.5,31.5,29.53,ESE,107,9.0,27.0,100,0.00,,,0.00,0048,Weather View 32 v70,2013-02-09 03:27:00,
2013-02-08 22:32:00,31.5,31.5,29.53,ESE,107,9.0,27.0,100,0.00,,,0.00,0048,Weather View 32 v70,2013-02-09 03:32:00,
2013-02-08 22:37:00,31.5,31.5,29.53,ESE,107,7.0,27.0,100,0.00,,,0.00,0048,Weather View 32 v70,2013-02-09 03:37:00,
2013-02-08 22:42:00,31.5,31.5,29.53,ESE,107,7.0,27.0,100,0.00,,,0.00,0048,Weather View 32 v70,2013-02-09 03:42:00,
2013-02-08 22:47:00,31.5,31.5,29.53,ESE,118,12.0,27.0,100,0.00,,,0.00,0048,Weather View 32 v70,2013-02-09 03:47:00,
2013-02-08 22:52:00,31.5,31.5,29.53,ESE,107,10.0,27.0,100,0.00,,,0.00,0048,Weather View 32 v70,2013-02-09 03:52:00,
2013-02-08 22:57:00,31.5,31.5,29.53,ESE,113,11.0,27.0,100,0.00,,,0.00,0048,Weather View 32 v70,2013-02-09 03:57:00,
2013-02-08 23:02:00,31.5,31.5,29.53,East,101,6.0,25.0,100,0.00,,,0.00,0048,Weather View 32 v70,2013-02-09 04:02:00,
2013-02-08 23:07:00,31.5,31.5,29.53,East,101,9.0,25.0,100,0.00,,,0.00,0048,Weather View 32 v70,2013-02-09 04:07:00,
2013-02-08 23:12:00,31.5,31.5,29.53,East,101,8.0,23.0,100,0.00,,,0.00,0048,Weather View 32 v70,2013-02-09 04:12:00,
2013-02-08 23:17:00,31.5,31.5,29.53,East,101,7.0,23.0,100,0.00,,,0.00,0048,Weather View 32 v70,2013-02-09 04:17:00,
2013-02-08 23:22:00,31.5,31.5,29.53,SE,129,16.0,23.0,100,0.00,,,0.00,0048,Weather View 32 v70,2013-02-09 04:22:00,
2013-02-08 23:27:00,31.5,31.5,29.53,ESE,118,14.0,23.0,100,0.00,,,0.00,0048,Weather View 32 v70,2013-02-09 04:27:00,
2013-02-08 23:32:00,31.5,31.5,29.53,East,96,7.0,23.0,100,0.00,,,0.00,0048,Weather View 32 v70,2013-02-09 04:32:00,
2013-02-08 23:37:00,31.5,31.5,29.53,East,101,9.0,23.0,100,0.00,,,0.00,0048,Weather View 32 v70,2013-02-09 04:37:00,
2013-02-08 23:42:00,31.5,31.5,29.53,East,101,8.0,26.0,100,0.00,,,0.00,0048,Weather View 32 v70,2013-02-09 04:42:00,
2013-02-08 23:47:00,31.5,31.5,29.53,ESE,113,12.0,26.0,100,0.00,,,0.00,0048,Weather View 32 v70,2013-02-09 04:47:00,
2013-02-08 23:52:00,31.5,31.5,29.53,East,96,7.0,26.0,100,0.00,,,0.00,0048,Weather View 32 v70,2013-02-09 04:52:00,
2013-02-08 23:57:00,31.5,31.5,29.53,East,96,7.0,26.0,100,0.00,,,0.00,0048,Weather View 32 v70,2013-02-09 04:57:00,